Dublin, Ireland

9:39 AM IST on September 25, 2017 (GMT +0100)
Dublin International

Weather History for EIDW - December, 2012

Change the Weather History Date:

Friday, December 21, 2012

  Actual Average Record
Temperature  
Mean Temperature 43 °F -  
Max Temperature 47 °F 46 °F 55 °F (2014)
Min Temperature 39 °F 37 °F 14 °F (2010)
Degree Days  
Heating Degree Days 22    
Moisture  
Dew Point 43 °F    
Average Humidity 96    
Maximum Humidity 100    
Minimum Humidity 87    
Precipitation  
Precipitation 0.08 in 0.09 in - ()
Sea Level Pressure  
Sea Level Pressure 29.73 in    
Wind  
Wind Speed 8 mph ()    
Max Wind Speed 16 mph    
Max Gust Speed -    
Visibility 5.5 miles    
Events Rain    
Averages and records for this station are not official NWS values.
T = Trace of Precipitation, MM = Missing Value Source: Averaged Metar Reports

Daily Weather History Graph

Daily Weather History Graph

Search for Another Location

Airport or City:

Trip Planner

Search our weather history database for the weather conditions in past years. The results will help you decide how hot, cold, wet, or windy it might be!

Date:

Astronomy

Dec. 21, 2012 Rise Set
Actual Time 8:38 AM GMT 4:07 PM GMT
Civil Twilight 7:55 AM GMT 4:50 PM GMT
Nautical Twilight 7:10 AM GMT 5:36 PM GMT
Astronomical Twilight 6:27 AM GMT 6:19 PM GMT
Moon 12:24 PM GMT (12/21) 1:31 AM GMT (12/21)
Length of Visible Light 8h 55m
Length of Day
7h 28m
Waxing Gibbous, 62% of the Moon is Illuminated
Dec 21
Waxing Gibbous
Dec 28
Full
Jan 5
Last Quarter
Jan 11
New
Jan 18
First Quarter

Hourly Weather History & Observations

Time (GMT) Temp. Windchill Dew Point Humidity Pressure Visibility Wind Dir Wind Speed Gust Speed Precip Events Conditions
12:00 AM 43 °F - 42 °F 97% 29.60 in 3 mi West 11.2 mph - - Rain Light Rain
12:00 AM 42.8 °F 36.6 °F 42.8 °F 100% 29.59 in 3.1 mi West 11.5 mph - N/A Rain Light Rain
12:30 AM 42.8 °F 37.0 °F 42.8 °F 100% 29.59 in 3.1 mi West 10.4 mph - N/A Rain Light Rain
1:00 AM 42.8 °F 38.6 °F 42.8 °F 100% 29.59 in 2.5 mi WSW 6.9 mph - N/A Rain Light Rain
1:30 AM 42.8 °F 37.5 °F 42.8 °F 100% 29.59 in 2.5 mi WSW 9.2 mph - N/A Rain Light Rain
2:00 AM 42.8 °F 36.2 °F 42.8 °F 100% 29.62 in 1.9 mi West 12.7 mph - N/A   Light Drizzle
2:30 AM 42.8 °F 35.8 °F 42.8 °F 100% 29.62 in 3.1 mi West 13.8 mph - N/A   Light Drizzle
3:00 AM 42.8 °F 35.8 °F 42.8 °F 100% 29.65 in 3.1 mi West 13.8 mph - N/A   Mostly Cloudy
3:30 AM 44.6 °F 39.2 °F 42.8 °F 93% 29.65 in 3.7 mi West 10.4 mph - N/A   Mostly Cloudy
4:00 AM 44.6 °F 38.8 °F 42.8 °F 93% 29.65 in 3.7 mi West 11.5 mph - N/A   Overcast
4:30 AM 44.6 °F 38.8 °F 42.8 °F 93% 29.65 in 5.0 mi West 11.5 mph - N/A   Overcast
5:00 AM 44.6 °F 39.2 °F 42.8 °F 93% 29.65 in 6.2 mi West 10.4 mph - N/A   Mostly Cloudy
5:30 AM 44.6 °F 40.2 °F 42.8 °F 93% 29.68 in 6.2 mi West 8.1 mph - N/A   Mostly Cloudy
6:00 AM 44 °F - 43 °F 96% 29.70 in 9 mi West 6.7 mph - -   Partly Cloudy
6:00 AM 44.6 °F 40.2 °F 42.8 °F 93% 29.68 in 6.2 mi West 8.1 mph - N/A   Overcast
6:30 AM 44.6 °F 39.7 °F 42.8 °F 93% 29.68 in 6.2 mi West 9.2 mph - N/A   Overcast
7:00 AM 44.6 °F 38.8 °F 42.8 °F 93% 29.71 in 6.2 mi West 11.5 mph - N/A   Overcast
7:30 AM 44.6 °F 38.8 °F 42.8 °F 93% 29.71 in 6.2 mi West 11.5 mph - N/A   Overcast
8:00 AM 44.6 °F 38.4 °F 42.8 °F 93% 29.74 in 6.2 mi West 12.7 mph - N/A   Mostly Cloudy
8:30 AM 44.6 °F 39.2 °F 42.8 °F 93% 29.74 in 3.1 mi West 10.4 mph - N/A   Mostly Cloudy
9:00 AM 44.6 °F 41.4 °F 42.8 °F 93% 29.74 in 2.8 mi West 5.8 mph - N/A   Mostly Cloudy
9:30 AM 42.8 °F 38.0 °F 42.8 °F 100% 29.77 in 2.8 mi WSW 8.1 mph - N/A   Mostly Cloudy
10:00 AM 42.8 °F 40.1 °F 42.8 °F 100% 29.77 in 3.7 mi SSW 4.6 mph - N/A   Mostly Cloudy
10:30 AM 42.8 °F 40.1 °F 42.8 °F 100% 29.77 in 5.0 mi WSW 4.6 mph - N/A   Mostly Cloudy
11:00 AM 44.6 °F 43.1 °F 42.8 °F 93% 29.80 in 5.6 mi Variable 3.5 mph - N/A   Mostly Cloudy
11:30 AM 44.6 °F 43.1 °F 42.8 °F 93% 29.80 in 5.6 mi Variable 3.5 mph - N/A   Mostly Cloudy
12:00 PM 45 °F - 44 °F 93% 29.83 in 7 mi SW 2.2 mph - -   Mist
12:00 PM 44.6 °F - 44.6 °F 100% 29.80 in 6.2 mi Variable 2.3 mph - N/A   Mostly Cloudy
12:30 PM 46.4 °F - 44.6 °F 93% 29.80 in 6.2 mi Variable 2.3 mph - N/A   Mostly Cloudy
1:00 PM 46.4 °F - 44.6 °F 93% 29.80 in 6.2 mi Variable 1.2 mph - N/A   Mostly Cloudy
1:30 PM 46.4 °F 44.3 °F 44.6 °F 93% 29.80 in 6.2 mi East 4.6 mph - N/A   Mostly Cloudy
2:00 PM 46.4 °F 45.2 °F 44.6 °F 93% 29.80 in 6.2 mi SSE 3.5 mph - N/A   Mostly Cloudy
2:30 PM 46.4 °F - 44.6 °F 93% 29.80 in 6.2 mi Variable 2.3 mph - N/A   Mostly Cloudy
3:00 PM 46.4 °F 45.2 °F 44.6 °F 93% 29.80 in 6.2 mi ESE 3.5 mph - N/A   Mostly Cloudy
3:30 PM 44.6 °F 42.2 °F 42.8 °F 93% 29.80 in 6.2 mi ESE 4.6 mph - N/A   Mostly Cloudy
4:00 PM 42.8 °F 41.1 °F 41.0 °F 93% 29.80 in 6.2 mi ESE 3.5 mph - N/A   Mostly Cloudy
4:30 PM 41.0 °F 39.0 °F 41.0 °F 100% 29.80 in 6.2 mi SE 3.5 mph - N/A   Mostly Cloudy
5:00 PM 41.0 °F 37.1 °F 39.2 °F 93% 29.80 in 6.2 mi ESE 5.8 mph - N/A   Scattered Clouds
5:30 PM 39.2 °F 35.0 °F 39.2 °F 100% 29.80 in 6.2 mi SE 5.8 mph - N/A   Scattered Clouds
6:00 PM 41 °F - 40 °F 97% 29.80 in 19 mi ESE 6.7 mph - -   Scattered Clouds
6:00 PM 41.0 °F 36.4 °F 41.0 °F 100% 29.77 in 6.2 mi ESE 6.9 mph - N/A   Mostly Cloudy
6:30 PM 41.0 °F 36.4 °F 41.0 °F 100% 29.77 in 6.2 mi ESE 6.9 mph - N/A   Mostly Cloudy
7:00 PM 42.8 °F 38.0 °F 41.0 °F 93% 29.77 in 6.2 mi SE 8.1 mph - N/A   Mostly Cloudy
7:30 PM 42.8 °F 37.5 °F 41.0 °F 93% 29.77 in 6.2 mi ESE 9.2 mph - N/A   Mostly Cloudy
8:00 PM 42.8 °F 36.2 °F 42.8 °F 100% 29.77 in 6.2 mi SE 12.7 mph - N/A   Mostly Cloudy
8:30 PM 44.6 °F 39.2 °F 42.8 °F 93% 29.77 in 6.2 mi SE 10.4 mph - N/A Rain Light Rain
9:00 PM 44.6 °F 39.2 °F 42.8 °F 93% 29.74 in 5.6 mi SE 10.4 mph - N/A Rain Light Rain
9:30 PM 44.6 °F 39.7 °F 44.6 °F 100% 29.74 in 4.3 mi SE 9.2 mph - N/A Rain Light Rain
10:00 PM 44.6 °F 40.2 °F 44.6 °F 100% 29.71 in 6.2 mi SE 8.1 mph - N/A Rain Light Rain
10:30 PM 44.6 °F 39.2 °F 44.6 °F 100% 29.71 in 6.2 mi SE 10.4 mph - N/A Rain Light Rain
11:00 PM 46.4 °F 40.7 °F 42.8 °F 87% 29.68 in 6.2 mi SSE 12.7 mph - N/A Rain Light Rain
11:30 PM 46.4 °F 39.8 °F 42.8 °F 87% 29.68 in 5.6 mi SE 16.1 mph - N/A Rain Light Rain